Hourly Data Report for September 28, 2017

All times are specified in Local Standard Time (LST). Add 1 hour to adjust for Daylight Saving Time where and when it is observed.

RESOLUTE BAY A
NUNAVUT

74°43'01.000" N
94°58'10.000" W
67.70 m
2403498
71924
YRB

Download Data

Hourly Data (September 2017)
Hourly Data Report for September 28, 2017
Temp Definition
°C
Dew Point Temp Definition
°C
Rel Hum Definition
%
Wind Dir Definition
10's deg

Wind Spd Definition
km/h
Visibility Definition
km
Stn Press Definition
kPa
Hmdx Definition


Wind Chill Definition


Weather Definition


TIME
00:00 Legend Double Dagger -8.9 -10.5 88 32 58 0.8 99.83   -21 Snow,Blowing Snow
01:00 Legend Double Dagger -9.8 -11.6 87 32 59 1.0 99.89   -22 Snow,Blowing Snow
02:00 Legend Double Dagger -9.9 -11.7 87 32 54 2.4 99.95   -22 Snow,Blowing Snow
03:00 Legend Double Dagger -10.3 -12.1 86 32 54 2.4 100.00   -23 Snow,Blowing Snow
04:00 Legend Double Dagger -11.1 -13.0 85 32 54 2.8 100.08   -24 Snow,Blowing Snow
05:00 Legend Double Dagger -10.9 -12.8 86 33 56 1.0 100.12   -24 Snow,Blowing Snow
06:00 Legend Double Dagger -11.3 -13.4 85 32 50 2.4 100.15   -24 Blowing Snow
07:00 Legend Double Dagger -11.6 -13.6 86 32 39 24.1 100.20   -23 LegendNANA
08:00 Legend Double Dagger -11.6 -13.8 84 33 35 24.1 100.22   -22 LegendNANA
09:00 Legend Double Dagger -11.0 -13.1 85 33 33 24.1 100.25   -21 Blowing Snow
10:00 Legend Double Dagger -8.9 -10.4 89 33 34 24.1 100.26   -19 LegendNANA
11:00 Legend Double Dagger -7.5 -9.3 87 32 46 16.1 100.33   -18 Blowing Snow
12:00 Legend Double Dagger -7.0 -8.7 88 32 31 24.1 100.37   -16 Cloudy
13:00 Legend Double Dagger -6.6 -8.6 86 32 41 24.1 100.41   -16 LegendNANA
14:00 Legend Double Dagger -6.4 -8.4 86 33 39 24.1 100.40   -16 LegendNANA
15:00 Legend Double Dagger -6.5 -8.5 85 33 34 24.1 100.41   -15 Cloudy
16:00 Legend Double Dagger -6.7 -8.7 86 34 20 24.1 100.38   -14 LegendNANA
17:00 Legend Double Dagger -7.0 -9.3 84 33 21 24.1 100.36   -14 LegendNANA
18:00 Legend Double Dagger -8.5 -11.1 81 34 21 24.1 100.35   -16 Snow
19:00 Legend Double Dagger -11.0 -13.1 85 36 20 24.1 100.34   -19 LegendNANA
20:00 Legend Double Dagger -11.8 -14.4 81 1 21 24.1 100.33   -20 LegendNANA
21:00 Legend Double Dagger -11.8 -14.4 81 4 23 24.1 100.30   -21 Cloudy
22:00 Legend Double Dagger -11.5 -13.8 83 5 21 24.1 100.26   -20 Snow
23:00 Legend Double Dagger -10.4 -13.8 77 4 17 24.1 100.23   -18 Snow

Notes on Data Quality.

Legend

  • E = Estimated
  • M = Missing
  • NA = Not Available
  • ‡ = Partner data that is not subject to review by the National Climate Archives
Date modified: